Weather History for Altoona, PA

Change the Weather History Date:

Wednesday, August 7, 2013

  Actual Average Record
Temperature  
Mean Temperature 69 °F 70 °F  
Max Temperature 76 °F 81 °F 92 °F (1965)
Min Temperature 62 °F 59 °F 47 °F (2002)
Degree Days  
Heating Degree Days 0 0  
Month to date heating degree days 3 0  
Since 1 June heating degree days 28 68  
Since 1 July heating degree days 8 10  
Cooling Degree Days 4 6  
Month to date cooling degree days 16 42  
Year to date cooling degree days 478 369  
Since 1 June cooling degree days 404 336  
Growing Degree Days 20 (Base 50)    
Moisture  
Dew Point 66 °F    
Average Humidity 90    
Maximum Humidity 100    
Minimum Humidity 79    
Precipitation  
Precipitation 1.13 in 0.09 in 1.82 in (1976)
Month to date precipitation 1.21 0.65  
Year to date precipitation 17.46 21.57  
Sea Level Pressure  
Sea Level Pressure 30.05 in    
Wind  
Wind Speed 4 mph (SE)    
Max Wind Speed 16 mph    
Max Gust Speed 32 mph    
Visibility 8 miles    
Events Fog , Rain , Thunderstorm    
T = Trace of Precipitation, MM = Missing Value Source: NWS Daily Summary

Daily Weather History Graph

Daily Weather History Graph

Search for Another Location

Airport:

Trip Planner

Search our weather history database for the weather conditions in past years. The results will help you decide how hot, cold, wet, or windy it might be!

Date:

Astronomy

Aug. 07, 2013 Rise Set
Actual Time 6:16 AM EDT 8:20 PM EDT
Civil Twilight 5:46 AM EDT 8:50 PM EDT
Nautical Twilight 5:10 AM EDT 9:26 PM EDT
Astronomical Twilight 4:30 AM EDT 10:06 PM EDT
Moon 7:03 AM EDT (8/7) 8:26 PM EDT (8/7)
Length of Visible Light 15h 03m
Length of Day
14h 03m
New Moon, 1% of the Moon is Illuminated
Aug 7
New Moon
Aug 14
First Quarter
Aug 20
Full
Aug 28
Last Quarter
Sep 5
New

Hourly Weather History & Observations

Time (EDT) Temp. Dew Point Humidity Pressure Visibility Wind Dir Wind Speed Gust Speed Precip Events Conditions
12:53 AM 64.9 °F 63.0 °F 93% 30.07 in 7.0 mi Calm Calm - N/A   Overcast
1:53 AM 64.9 °F 63.0 °F 93% 30.06 in 7.0 mi Calm Calm - N/A   Overcast
2:30 AM 64.4 °F 62.6 °F 94% 30.08 in 7.0 mi Calm Calm - N/A   Overcast
2:53 AM 66.0 °F 63.0 °F 90% 30.06 in 8.0 mi Calm Calm - N/A   Overcast
3:45 AM 66.2 °F 62.6 °F 88% 30.08 in 8.0 mi Calm Calm - N/A   Overcast
3:53 AM 66.0 °F 63.0 °F 90% 30.05 in 8.0 mi Calm Calm - N/A   Overcast
4:53 AM 66.0 °F 63.0 °F 90% 30.05 in 8.0 mi Calm Calm - N/A   Overcast
5:02 AM 66.2 °F 62.6 °F 88% 30.08 in 7.0 mi SSE 3.5 mph - N/A   Overcast
5:53 AM 66.0 °F 64.0 °F 93% 30.05 in 7.0 mi Calm Calm - N/A   Overcast
6:53 AM 66.0 °F 64.9 °F 96% 30.05 in 5.0 mi Calm Calm - 0.00 in   Overcast
7:53 AM 66.9 °F 64.9 °F 93% 30.06 in 8.0 mi South 6.9 mph - N/A   Overcast
8:53 AM 68.0 °F 64.9 °F 90% 30.06 in 10.0 mi SSE 6.9 mph - N/A   Overcast
9:53 AM 68.0 °F 66.0 °F 93% 30.06 in 10.0 mi SSE 6.9 mph - N/A   Overcast
10:53 AM 70.0 °F 66.0 °F 87% 30.06 in 10.0 mi Variable 4.6 mph - N/A   Overcast
11:53 AM 70.0 °F 66.9 °F 90% 30.06 in 10.0 mi SSE 5.8 mph - N/A   Overcast
12:53 PM 72.0 °F 66.9 °F 84% 30.05 in 10.0 mi SE 5.8 mph - N/A   Overcast
1:03 PM 71.6 °F 66.2 °F 83% 30.07 in 10.0 mi SSE 5.8 mph - N/A   Overcast
1:53 PM 73.0 °F 68.0 °F 84% 30.04 in 10.0 mi SE 4.6 mph - N/A   Overcast
2:53 PM 73.9 °F 68.0 °F 82% 30.03 in 10.0 mi South 4.6 mph - N/A   Overcast
3:53 PM 75.0 °F 68.0 °F 79% 30.01 in 10.0 mi SSE 6.9 mph - N/A   Overcast
4:46 PM 75.2 °F 68.0 °F 78% 30.03 in 10.0 mi SE 6.9 mph - 0.00 in   Scattered Clouds
4:53 PM 75.9 °F 68.0 °F 76% 30.00 in 10.0 mi SE 8.1 mph - 0.00 in   Scattered Clouds
5:53 PM 75.0 °F 70.0 °F 84% 29.99 in 10.0 mi ESE 4.6 mph - N/A   Mostly Cloudy
6:02 PM 75.2 °F 69.8 °F 83% 30.01 in 10.0 mi ESE 3.5 mph - N/A   Mostly Cloudy
6:39 PM 73.4 °F 69.8 °F 88% 30.02 in 10.0 mi East 3.5 mph - 0.00 in Rain Light Rain
6:49 PM 73.4 °F 69.8 °F 88% 30.03 in 10.0 mi East 3.5 mph - 0.00 in Thunderstorm Overcast
6:53 PM 73.9 °F 70.0 °F 87% 30.00 in 10.0 mi East 5.8 mph - 0.00 in Thunderstorm Overcast
7:28 PM 71.6 °F 69.8 °F 94% 30.05 in 6.0 mi North 4.6 mph - 0.01 in Rain , Thunderstorm Light Thunderstorms and Rain
7:42 PM 69.8 °F 66.2 °F 88% 30.09 in 2.0 mi West 10.4 mph 21.9 mph 0.13 in Rain , Thunderstorm Heavy Rain
7:47 PM 69.8 °F 66.2 °F 88% 30.10 in 0.8 mi WNW 9.2 mph 32.2 mph 0.35 in Rain , Thunderstorm Heavy Rain
7:53 PM 66.9 °F 66.0 °F 97% 30.07 in 0.8 mi North 6.9 mph - 0.46 in Rain , Thunderstorm Heavy Thunderstorms and Rain
8:01 PM 66.2 °F 64.4 °F 94% 30.09 in 1.5 mi North 8.1 mph - 0.14 in Rain , Thunderstorm Heavy Thunderstorms and Rain
8:10 PM 66.2 °F 66.2 °F 100% 30.08 in 0.5 mi Calm Calm - 0.45 in Fog , Rain , Thunderstorm Heavy Thunderstorms and Rain
8:21 PM 66.2 °F 66.2 °F 100% 30.06 in 1.0 mi ESE 3.5 mph - 0.65 in Rain , Thunderstorm Heavy Thunderstorms and Rain
8:25 PM 66.2 °F 66.2 °F 100% 30.08 in 2.0 mi NE 5.8 mph - 0.66 in Rain , Thunderstorm Heavy Rain
8:27 PM 66.2 °F 66.2 °F 100% 30.08 in 3.0 mi Calm Calm - 0.66 in Rain Heavy Rain
8:35 PM 66.2 °F 66.2 °F 100% 30.09 in 7.0 mi Calm Calm - 0.67 in Rain , Thunderstorm Light Thunderstorms and Rain
8:53 PM 66.9 °F 66.0 °F 97% 30.05 in 10.0 mi SE 6.9 mph - 0.67 in   Overcast
9:06 PM 66.2 °F 66.2 °F 100% 30.06 in 10.0 mi SSE 4.6 mph - N/A   Overcast
9:53 PM 66.9 °F 64.0 °F 90% 30.06 in 10.0 mi SW 8.1 mph - N/A   Mostly Cloudy
10:53 PM 64.9 °F 64.0 °F 97% 30.04 in 10.0 mi Calm Calm - N/A   Clear
11:53 PM 64.0 °F 63.0 °F 96% 30.03 in 10.0 mi Calm Calm - N/A   Clear